STARLINK-5541, 56475

Orbit data source: Space-Track

STARLINK-5541, 56475 is a payload satellite owned by SpaceX/Seattle (US) in LEO that was launched on Wed, 10 May 2023 UTC via an FALCON 9 launch vehicle from the Air Force Western Test Range (AFWTR). Payload-class satellites include a variety of spacecraft equipped with specific instruments for various scientific and technological missions. These include communications satellites like Starlink; space stations such as the ISS; scientific satellites like the Hubble; Earth observation satellites from companies like Planet Labs, Umbra, and HawkEye 360; GPS; miniature CubeSats for education and research; and military/defense satellites.

Loading next visibility...
Identifier
56475, 2023-064AD
Orbit
LEO
Country
Flag of USUS
Related business
Manufacturer
SpaceX/Seattle
Mission
Operational Commercial Communications
Bus & Motor
STARLINK, Unknown motor
Mass
305 kg wet, ~290 kg dry
Launch date (UTC)
2023-05-10 (3 years ago)
Launch vehicle
FALCON 9
Launch site
Air Force Western Test Range (AFWTR)
Object type
Payload
Rocket body
Debris
Shape & HBR
Box + 1 Pan, 10.1 m
Radar Cross Section
11.087 m², Large (>1 m²)

Expand to show TLE details & history
Last TLE update: 2 days ago

TLE from 2 days ago
0 STARLINK-5541
1 56475U 23064AD  26171.39925516 -.00000261  00000-0 -14043-4 0  9996
2 56475  69.9988 225.5041 0003448 269.3707  90.7057 14.98329537171121
Epoch: 2026-06-20T09:34Z
TLE epoch observation values (Epoch: 2026-06-20T09:34:55.645Z)
Latitude
-0.00004°
Longitude
173.15779°
Altitude
574.511 km
Speed
7.574 km/s
True Right ascension
15h 02m 00s
True Declination
0° 00' 00"
Sunlit
Object was in full shadow at epoch
Visualization orbit readout
Latitude
Unknown
Longitude
Unknown
Altitude
Unknown
Speed
Unknown
Apparent Right ascension
Unknown
Apparent Declination
Unknown
Sunlit
N/A
Visualization observer readout
Local Sidereal Time
23:09:16
Azimuth
Unknown
Elevation
Unknown
Doppler factor
Unknown
Orbital elements
Apogee altitude
572.401 km
Perigee altitude
567.61 km
Semi-major axis
6,948.143 km
Eccentricity
0.00034
Inclination
69.9988°
RAAN
225.5041°
Arg. of periapsis
269.3707°
True anomaly
90.74521°
Mean anomaly
90.7057°
Eccentric anomaly
90.72545°
Mean motion
3.74749 °/min
Orbital period
96.06 mins
BSTAR
-0.000014043
Loading maneuver chart data...
Computing Atmospheric mass density...
Loading historical data...
Loading historical data...
Loading historical data...
Loading historical data...
Loading historical data...
Loading historical data...
Loading historical data...

Documentation

Showing up to 5 results
|